Dewpoint
43 43 44 44 45 46 47 47 48 48 49 50 50 51 52 51 44 28 20 28 37 41 47 31 17 18 15 21 29 22 15 10 6 6 7 12 11 10 11 11 10 9 28 43 47
44 43 44 44 46 46 47 47 48 48 49 49 50 51 52 51 36 19 30 41 38 39 32 11 10 14 9 17 23 24 19 16 16 24 22 20 20 20 18 15 14 10 13 31 35
45 44 44 44 45 46 46 47 48 49 49 49 50 51 51 47 32 16 27 32 35 37 27 13 9 9 8 12 19 20 16 15 21 25 24 21 19 19 19 20 22 20 22 23 21
46 45 44 44 45 45 46 48 49 49 49 49 50 51 50 34 15 19 22 29 34 33 18 13 9 8 8 8 14 20 18 18 23 19 14 10 8 11 15 17 22 22 23 23 24
46 46 45 44 44 45 47 48 49 50 50 50 50 50 36 24 15 18 24 21 20 17 16 14 10 9 6 6 10 11 5 14 17 10 4 1 0 2 3 3 9 14 16 19 21
45 46 46 45 44 45 46 48 50 50 48 49 49 49 33 15 19 13 13 14 16 18 17 18 13 14 8 9 7 13 11 6 3 -0 3 7 7 7 11 16 10 6 20 20 20
42 45 46 46 45 44 46 48 49 47 45 45 46 38 19 16 15 10 12 13 18 18 17 19 19 14 12 11 13 9 5 1 -0 8 7 9 4 4 8 17 14 11 6 7 14
42 45 47 47 46 45 46 48 49 47 46 45 46 34 16 14 15 8 12 12 17 19 19 21 20 19 15 16 13 8 6 3 7 7 7 8 7 8 12 10 11 11 14 21 20
45 46 46 48 47 45 45 47 46 48 44 43 34 30 14 15 11 7 11 12 14 19 23 23 22 16 17 13 7 7 4 7 7 9 10 9 8 12 14 14 14 14 13 13 14
45 46 46 47 46 44 44 44 42 42 35 28 14 18 15 10 10 7 10 15 15 18 21 22 20 8 11 11 5 9 9 9 8 9 12 12 13 14 18 23 26 25 23 18 13
44 45 46 46 44 43 43 35 25 29 22 17 14 12 10 10 14 8 9 13 12 12 13 14 7 8 12 15 15 14 12 10 9 9 11 10 10 26 32 33 30 29 30 31 13
45 46 46 45 41 41 43 37 33 37 22 16 12 13 14 14 10 9 11 9 9 9 14 8 9 13 15 15 15 15 12 9 10 14 14 11 10 27 29 33 32 32 32 35 37
44 46 46 44 41 41 40 36 35 40 30 12 11 11 14 14 10 9 11 6 8 7 9 9 10 16 16 15 14 12 15 15 15 17 13 8 14 26 28 30 34 35 35 36 37
45 46 45 41 37 35 34 37 37 41 29 12 9 9 11 14 13 10 10 13 6 7 10 9 13 16 15 13 16 16 20 19 19 17 8 11 6 24 28 31 32 35 37 38 36
44 45 44 43 42 29 40 38 39 40 26 16 6 11 10 12 10 11 12 10 8 12 20 10 13 14 14 14 19 17 21 20 19 17 12 17 14 25 29 31 32 36 37 38 38
43 45 44 35 39 40 39 40 37 29 17 8 6 7 7 8 7 9 11 10 11 10 10 10 15 14 15 17 21 19 18 18 19 16 19 20 15 27 30 33 33 34 36 39 39
44 45 42 35 38 39 44 37 25 27 17 7 5 7 7 7 6 10 10 11 11 10 10 10 10 14 15 11 17 15 17 13 10 18 20 19 22 27 34 34 35 34 37 38 39
45 44 38 31 37 40 43 29 26 28 19 8 3 7 5 6 8 8 9 6 7 7 -1 6 12 9 12 12 9 12 14 17 13 13 13 20 23 29 34 35 35 37 37 38 39
44 39 36 37 38 42 38 31 30 22 10 4 4 4 4 4 10 8 10 10 11 12 13 5 11 10 11 13 9 13 16 15 22 20 18 23 30 31 32 31 35 34 37 38 39
36 34 32 35 40 38 37 32 27 19 7 4 4 5 5 7 9 9 12 12 12 12 18 13 12 9 8 15 10 12 16 19 24 17 14 22 22 22 30 32 33 34 34 34 40
36 31 36 38 39 32 32 32 26 15 11 5 5 6 6 7 5 9 12 12 15 11 15 11 18 15 11 14 8 13 14 22 26 23 17 16 24 24 27 30 28 29 29 28 31
32 30 41 37 23 28 30 28 21 10 11 9 13 11 7 9 7 11 12 14 15 13 13 16 17 13 9 10 7 12 14 17 22 24 23 22 26 25 21 22 21 21 26 27 26
30 31 40 34 21 29 27 25 25 14 11 12 12 12 10 11 11 12 13 21 18 15 16 15 22 15 13 14 12 9 13 14 18 25 24 19 25 20 16 17 17 17 17 18 19
31 29 35 32 24 21 24 25 26 18 14 12 12 12 13 12 17 16 17 21 18 18 18 18 19 18 15 11 13 8 9 11 15 17 20 18 13 14 15 14 14 16 16 16 18
35 33 32 29 28 24 23 21 21 17 15 14 13 12 13 17 17 16 17 21 19 23 13 23 19 14 13 9 7 4 6 7 10 15 12 16 11 13 14 14 14 14 15 16 18
34 34 27 24 27 24 25 25 16 16 15 14 14 14 15 17 18 18 17 20 20 22 17 21 20 16 14 12 6 5 6 7 9 9 8 11 10 15 14 13 13 14 17 18 18
37 32 29 30 23 23 25 23 21 15 16 16 15 17 14 16 18 17 18 21 20 20 19 23 23 16 20 10 8 10 9 9 10 11 12 11 15 13 11 13 13 14 21 19 17
Wind_Speed
12 13 13 13 14 14 15 15 16 17 18 18 19 20 20 23 24 4 10 9 11 26 24 21 17 14 13 16 17 7 15 18 19 18 13 12 8 4 15 14 12 10 10 13 10
12 13 13 15 15 15 15 16 17 18 19 20 19 19 20 21 17 12 6 12 18 22 18 12 12 6 13 13 15 15 15 18 11 16 15 14 12 10 10 12 17 11 9 13 8
13 14 15 15 16 16 18 18 18 17 15 19 19 19 19 17 12 7 8 14 20 22 22 13 8 12 15 14 15 12 17 18 12 12 13 12 9 12 12 10 13 19 20 23 13
13 15 16 17 17 19 19 20 19 18 17 18 19 19 19 11 3 7 7 15 21 23 15 9 9 12 12 12 7 4 12 5 9 12 14 17 17 17 14 15 20 18 17 16 16
13 15 16 17 18 19 20 20 19 17 15 14 15 15 9 5 5 9 8 10 10 9 10 8 6 6 6 1 5 6 10 9 8 11 12 16 18 19 23 19 22 22 22 17 16
11 14 16 18 18 20 21 20 17 16 15 15 16 16 6 4 6 10 9 8 12 12 9 12 6 10 6 6 4 7 7 8 8 8 7 13 18 17 21 22 20 18 12 12 15
12 14 17 18 19 21 22 21 16 12 14 16 19 12 7 3 4 7 13 7 8 9 8 7 7 6 1 4 1 3 6 9 6 2 3 12 13 12 17 20 9 12 17 18 19
11 13 16 18 20 21 22 21 15 13 16 17 17 11 2 2 9 7 10 3 5 8 6 5 4 3 1 2 6 6 4 4 8 6 7 2 14 10 22 20 20 23 23 21 21
10 12 15 16 19 20 22 21 17 16 17 20 11 9 3 5 4 8 5 6 4 4 3 4 9 4 7 7 9 9 5 7 9 7 11 12 19 18 22 22 23 23 22 23 20
11 11 12 15 18 21 24 19 13 13 12 14 14 8 3 2 5 7 4 4 3 1 5 6 7 7 13 14 5 7 6 8 10 9 11 15 17 22 21 23 24 26 26 25 22
12 12 12 13 17 19 15 6 5 6 12 8 4 4 4 3 9 8 5 8 8 7 3 3 12 8 8 8 6 5 7 10 11 12 14 17 16 18 25 27 27 28 28 36 21
13 13 13 14 16 19 9 6 8 4 5 6 2 1 4 3 4 9 10 7 3 6 3 11 11 6 5 4 8 6 6 10 9 14 14 13 11 23 25 21 22 30 33 35 43
12 14 14 15 18 10 9 6 6 11 6 7 7 5 2 7 1 6 9 3 4 5 9 15 8 3 5 8 11 6 5 9 10 14 15 11 8 22 24 23 25 24 31 33 34
13 10 13 19 8 1 4 3 4 6 5 11 8 6 7 3 4 2 3 5 1 4 8 8 4 3 2 8 9 7 7 10 10 11 10 5 6 19 22 23 25 25 27 32 33
11 10 13 11 14 3 4 2 3 3 3 12 12 6 4 6 2 4 1 6 5 5 4 5 5 6 5 7 6 7 12 15 12 14 12 12 4 9 15 16 21 21 22 25 29
8 10 13 9 8 4 1 1 2 1 7 8 8 10 11 7 2 4 3 1 3 4 9 8 4 6 6 9 2 12 18 21 17 13 2 6 5 4 10 9 12 16 21 23 27
7 9 11 14 4 1 4 5 4 6 3 9 10 15 14 8 6 5 9 8 5 8 10 8 6 5 7 9 4 13 16 7 1 3 1 1 8 1 5 12 10 13 14 16 20
7 9 10 9 10 2 8 9 7 6 11 3 11 14 13 11 7 8 6 8 3 7 3 8 7 1 4 4 7 7 11 7 5 8 7 4 4 3 6 6 10 10 14 14 12
7 10 9 10 8 7 11 8 8 8 12 9 15 14 11 13 2 10 8 3 3 5 2 4 5 5 3 4 8 8 6 7 5 8 10 6 5 5 5 7 6 11 11 12 10
10 9 13 11 8 7 11 11 8 11 3 12 14 15 16 15 9 11 10 4 5 2 3 2 5 4 3 3 5 4 7 2 3 4 5 8 8 5 7 4 3 2 0 2 5
10 6 9 12 8 10 14 10 11 8 8 10 20 8 11 13 15 14 10 8 2 5 1 2 2 6 3 2 3 2 3 3 2 4 3 6 6 6 7 4 2 3 4 3 5
11 9 11 12 13 11 17 13 9 13 11 8 3 10 12 12 14 12 8 3 8 5 5 3 1 3 5 4 3 2 0 2 2 3 3 4 1 1 4 3 4 6 8 3 1
9 13 9 14 13 14 13 19 18 13 16 10 10 11 9 10 8 9 9 11 8 7 5 7 3 6 4 5 7 6 5 3 5 3 5 2 1 5 2 3 6 8 10 12 11
11 7 3 15 16 20 17 18 23 14 18 15 9 8 10 11 8 10 11 8 7 4 7 1 4 6 3 3 0 7 9 7 6 5 5 6 2 4 1 6 8 9 12 12 14
9 8 8 8 20 23 25 12 23 13 20 21 13 16 15 10 12 12 15 13 9 8 7 3 4 7 6 4 6 9 9 9 12 13 9 2 7 4 1 4 7 10 12 14 14
7 5 14 16 25 28 26 29 20 24 15 19 17 18 17 11 13 13 16 15 10 12 11 6 3 1 4 10 7 11 13 14 14 11 10 4 8 9 1 3 7 9 10 13 16
11 16 12 9 22 25 28 26 27 18 20 19 24 15 19 16 14 6 13 16 5 16 14 10 5 5 2 3 5 12 24 20 16 13 11 9 7 4 2 5 8 8 9 12 14
Wind_Direction
9 6 4 358 2 354 349 344 341 335 329 324 321 324 327 326 316 319 29 327 306 305 310 280 254 246 226 249 245 246 261 255 255 258 284 109 87 6 358 335 313 327 79 111 112
6 1 358 358 354 350 342 340 337 333 330 324 322 323 327 328 304 55 339 310 308 307 317 330 303 251 229 221 222 225 230 244 24 27 11 29 38 10 337 327 313 311 333 116 107
0 358 355 353 349 343 340 341 334 329 321 310 320 321 327 320 286 58 355 312 302 300 300 287 262 260 244 219 214 222 243 280 47 31 354 342 336 343 328 304 302 332 332 339 6
356 354 353 350 347 341 340 335 330 326 323 320 315 322 327 315 30 33 310 288 284 286 305 304 232 230 238 201 231 231 267 357 315 9 344 334 325 308 298 292 291 310 310 317 332
355 352 351 345 342 341 339 333 330 317 307 304 309 328 326 229 7 347 278 335 321 340 359 337 359 311 229 190 33 245 281 18 356 339 325 322 317 304 297 288 284 289 290 281 292
355 352 348 343 341 338 336 333 327 316 307 310 319 322 259 269 336 331 340 342 356 345 34 12 11 326 52 29 321 0 325 309 293 291 342 327 314 306 292 279 272 279 317 300 282
348 349 346 341 339 337 335 332 324 315 307 310 313 309 19 31 255 336 321 31 348 5 24 19 314 325 225 160 85 272 277 250 224 53 309 345 298 315 2 358 343 281 285 286 295
349 344 342 340 336 334 331 327 314 309 304 297 299 297 40 323 318 6 335 44 26 10 4 352 316 75 333 153 197 211 212 34 132 344 332 50 310 344 339 335 323 321 319 320 322
350 342 339 337 334 330 327 322 300 296 294 291 288 239 141 176 343 353 19 355 346 360 28 281 245 290 162 246 188 84 8 358 324 350 348 326 311 324 327 319 313 310 305 299 301
337 334 336 334 331 328 325 305 291 306 254 257 258 262 185 128 338 350 59 314 326 218 238 248 225 66 35 9 126 26 357 325 315 350 344 322 320 326 338 352 357 352 337 306 285
329 326 327 329 324 326 335 270 222 209 232 304 49 26 124 135 261 20 359 286 232 238 106 284 82 56 38 32 22 339 294 311 0 1 347 317 311 46 25 22 12 0 350 343 295
324 321 318 319 316 318 299 263 55 324 267 232 242 353 9 337 247 38 312 241 273 164 200 125 80 55 346 18 359 302 333 8 326 351 322 313 300 57 38 24 17 13 7 356 4
325 318 314 313 315 296 246 8 336 344 254 187 222 208 193 237 29 20 337 259 340 90 73 69 74 10 358 37 352 347 27 341 323 325 296 7 58 38 24 26 19 19 9 8 7
326 318 314 316 297 163 227 348 330 336 269 177 206 195 178 225 220 333 356 311 115 89 66 67 78 360 8 25 352 297 11 321 310 320 331 350 286 37 23 19 22 16 10 3 4
321 312 311 316 313 229 54 345 320 275 263 158 151 102 147 218 68 133 63 248 75 111 241 107 57 15 23 348 349 309 312 288 279 270 298 339 324 355 13 3 3 16 16 9 2
310 306 322 280 244 347 35 231 244 192 243 176 159 187 177 185 175 127 151 272 15 128 62 101 156 62 350 309 22 294 311 281 244 255 38 3 357 38 7 339 349 11 19 7 9
293 297 303 308 322 69 247 194 169 195 172 176 187 177 184 169 160 200 163 173 224 180 171 150 88 126 15 2 181 1 351 6 178 194 88 194 71 80 21 354 352 359 12 22 14
274 288 276 258 308 273 235 211 201 204 212 133 173 181 200 162 167 178 193 147 79 288 172 193 175 54 52 16 342 22 35 18 306 350 331 41 60 82 107 45 21 4 356 2 34
268 253 243 238 249 258 227 203 213 215 200 174 163 187 195 187 235 191 212 133 62 1 320 193 128 128 89 341 359 7 23 330 289 284 277 125 79 111 150 58 47 43 23 357 358
262 232 240 177 192 231 225 218 235 242 245 191 187 197 199 194 201 198 173 160 145 40 326 115 155 161 99 237 101 62 29 16 341 331 317 120 79 43 55 42 56 226 57 222 178
261 232 118 143 173 212 219 213 238 252 251 214 216 191 244 180 203 199 173 134 181 125 315 125 294 140 212 63 31 5 51 59 305 308 308 318 112 54 73 51 356 146 165 329 129
246 218 156 159 192 212 226 213 244 240 223 241 297 259 225 179 199 189 172 143 155 150 155 67 288 204 79 99 120 112 163 72 210 34 337 253 145 48 77 116 63 40 135 175 126
231 230 169 198 206 222 225 223 251 248 211 217 208 238 225 185 198 189 154 102 140 175 161 161 201 173 172 173 197 228 194 198 166 170 248 262 91 176 34 29 46 26 11 2 21
241 216 139 202 236 209 217 225 224 235 244 219 216 192 200 198 169 188 146 155 164 140 76 32 217 252 320 35 189 196 205 198 219 264 277 232 239 170 152 360 4 8 357 10 15
217 229 185 196 219 231 212 214 215 219 220 204 220 202 195 194 177 206 163 150 182 140 175 222 210 219 260 283 258 250 241 232 222 220 265 276 268 127 86 332 347 1 1 11 9
205 203 205 235 208 216 225 218 221 213 205 213 212 207 205 192 187 201 181 176 177 171 195 189 198 129 301 258 245 252 243 237 241 253 244 261 267 99 5 316 1 351 20 5 358
234 247 257 250 226 213 222 220 222 221 204 218 206 207 214 197 195 227 205 179 198 175 189 163 183 161 219 208 279 278 239 230 226 222 222 216 99 92 42 2 350 329 41 6 1